This is the latest recevied weather packets stored in our database for station/object KK4MOR. If no packets are shown the sender has not sent any weather packets the latest 10 day(s).
| Time | Temp. | Humidity | Pressure | Rain* | Wind** | Luminosity | Snow |
|---|---|---|---|---|---|---|---|
| 1777315516 | 25° C | 62% | 1013.3 hPa | 0 mm | - | - | - |
| 1777314614 | 25° C | 62% | 1013.2 hPa | 0 mm | - | - | - |
| 1777313710 | 25° C | 64% | 1013.4 hPa | 0 mm | - | - | - |
| 1777312807 | 24.44° C | 66% | 1013.4 hPa | 0 mm | - | - | - |
| 1777311905 | 23.89° C | 67% | 1013.7 hPa | 0 mm | - | - | - |
| 1777311009 | 23.33° C | 68% | 1013.9 hPa | 0 mm | - | - | - |
| 1777310105 | 23.89° C | 67% | 1014 hPa | 0 mm | - | - | - |
| 1777309202 | 23.89° C | 69% | 1014 hPa | 0 mm | - | - | - |
| 1777308356 | 22.78° C | 71% | 1014.2 hPa | 0 mm | - | - | - |
| 1777307466 | 22.22° C | 70% | 1014.2 hPa | 0 mm | - | - | - |
| 1777306555 | 22.22° C | 70% | 1014.2 hPa | 0 mm | - | - | - |
| 1777305680 | 22.22° C | 71% | 1014.1 hPa | 0 mm | - | - | - |
| 1777304750 | 21.67° C | 74% | 1014.2 hPa | 0 mm | - | - | - |
| 1777303847 | 21.11° C | 75% | 1014.4 hPa | 0 mm | - | - | - |
| 1777302946 | 21.11° C | 74% | 1014.9 hPa | 0 mm | - | - | - |
| 1777302044 | 20.56° C | 76% | 1015.1 hPa | 0 mm | - | - | - |
| 1777301154 | 20.56° C | 76% | 1015 hPa | 0 mm | - | - | - |
| 1777300240 | 20° C | 78% | 1014.8 hPa | 0 mm | - | - | - |
| 1777299337 | 20° C | 79% | 1014.8 hPa | 0 mm | - | - | - |
| 1777298436 | 19.44° C | 79% | 1014.7 hPa | 0 mm | - | - | - |
| 1777297537 | 19.44° C | 80% | 1014.6 hPa | 0 mm | - | - | - |
| 1777296631 | 18.89° C | 82% | 1014.6 hPa | 0 mm | - | - | - |
| 1777295730 | 18.33° C | 84% | 1014.7 hPa | 0 mm | - | - | - |
| 1777294825 | 17.78° C | 85% | 1014.8 hPa | 0 mm | - | - | - |
| 1777293921 | 17.22° C | 87% | 1014.5 hPa | 0 mm | - | - | - |
* Rain latest hour (hover to see other rain measurements)
** Current wind speed in m/s (hover to see current wind gust speed)